DELTA 1 DEB, 29186

Orbit data source: Space-Track

DELTA 1 DEB, 29186 is space debris in LEO originally from a launch on Thu, 11 Jan 1968 UTC launched from the Air Force Western Test Range (AFWTR). Debris objects in space refer to the collection of defunct objects orbiting the Earth. Examples of debris include non-operational satellites, rocket bodies, and fragments generated from explosions, collisions, or faulty payload assembly.

Loading next visibility...
Identifier
29186, 1968-002K
Orbit
LEO
Country
Flag of USUS
Related business
Manufacturer
Unknown
Mission
Spacecraft
Bus & Motor
Unknown
Mass
Unknown
Launch date (UTC)
1968-01-11 (58 years ago)
Launch vehicle
Unknown
Launch site
Air Force Western Test Range (AFWTR)
Object type
Payload
Rocket body
Debris
Shape & HBR
Unknown
Radar Cross Section
Small (<0.1 m²)

Expand to show TLE details & history
Last TLE update: 1 month ago

TLE from 1 month ago
0 DELTA 1 DEB
1 29186U 68002K   25228.92480637  .00000279  00000-0  10630-2 0  9990
2 29186 105.8058 277.5022 0306973 301.0925 236.6828 12.92887865979161
Epoch: 2025-08-16T22:11Z
TLE epoch observation values (Epoch: 2025-08-16T22:11:43.27Z)
Latitude
4.83384°
Longitude
160.38387°
Altitude
1,426.265 km
Speed
7.086 km/s
True Right ascension
06h 35m 28s
True Declination
4° 48' 27"
Sunlit
Object was in daylight at epoch
Visualization orbit readout
Latitude
Unknown
Longitude
Unknown
Altitude
Unknown
Speed
Unknown
Apparent Right ascension
Unknown
Apparent Declination
Unknown
Sunlit
N/A
Visualization observer readout
Local Sidereal Time
04:20:11
Azimuth
Unknown
Elevation
Unknown
Doppler factor
Unknown
Orbital elements
Apogee altitude
1,523.178 km
Perigee altitude
1,052.528 km
Semi-major axis
7,665.99 km
Eccentricity
0.0307
Inclination
105.8058°
RAAN
277.5022°
Arg. of periapsis
301.0925°
True anomaly
233.80523°
Mean anomaly
236.6828°
Eccentric anomaly
235.23788°
Mean motion
3.23363 °/min
Orbital period
111.33 mins
BSTAR
0.001063
Loading maneuver chart data...
Computing Atmospheric mass density...
Loading historical data...
Loading historical data...
Loading historical data...
Loading historical data...
Loading historical data...
Loading historical data...
Loading historical data...

Documentation

Showing up to 5 results
|